Back to catalog

STARLINK-37039

AliveCommunicationsVLEO
NORAD 69361·PAYLOAD·🇺🇸 United States

Launched Jun 4, 2026 from Cape Canaveral Space Force Station

Loading…

Next Passes (next 24 hours)

TLE

FreshSource: CelesTrak SupGP

Epoch: Sep 14, 2026, 21:21 UTC

1 69361C 26123J   26257.89006944 -.00033914  00000+0 -10014-2 0  2577
2 69361  53.1576 167.7348 0001206  96.3705 198.9321 15.34425433    17

Track STARLINK-37039 in real time with AllMySat

Download on the App Store